Year,Month,Day,Hour,Minute,Value (Times are PST for temperature in C)
2014,03,29,09,08,6.80
2014,03,29,09,09,6.80
2014,03,29,09,10,6.90
2014,03,29,09,11,6.90
2014,03,29,09,12,6.90
2014,03,29,09,13,6.90
2014,03,29,09,14,7.00
2014,03,29,09,15,7.00
2014,03,29,09,16,7.10
2014,03,29,09,17,7.20
2014,03,29,09,18,7.30
2014,03,29,09,19,7.40
2014,03,29,09,20,7.40
2014,03,29,09,21,7.50
2014,03,29,09,22,7.50
2014,03,29,09,23,7.70
2014,03,29,09,24,7.80
2014,03,29,09,25,7.90
2014,03,29,09,26,7.90
2014,03,29,09,27,7.90
2014,03,29,09,28,7.90
2014,03,29,09,29,7.90
2014,03,29,09,30,7.90
2014,03,29,09,31,7.90
2014,03,29,09,32,7.90
2014,03,29,09,33,8.00
2014,03,29,09,34,8.10
2014,03,29,09,35,8.10
2014,03,29,09,36,8.10
2014,03,29,09,37,8.20
2014,03,29,09,38,8.20
2014,03,29,09,39,8.20
2014,03,29,09,40,8.30
2014,03,29,09,41,8.40
2014,03,29,09,42,8.40
2014,03,29,09,43,8.50
2014,03,29,09,44,8.60
2014,03,29,09,45,8.60
2014,03,29,09,46,8.60
2014,03,29,09,47,8.60
2014,03,29,09,48,8.70
2014,03,29,09,49,8.70
2014,03,29,09,50,8.80
2014,03,29,09,51,8.80
2014,03,29,09,52,8.90
2014,03,29,09,53,8.90
2014,03,29,09,54,9.00
2014,03,29,09,55,9.10
2014,03,29,09,56,9.20
2014,03,29,09,57,9.20
2014,03,29,09,58,9.20
2014,03,29,09,59,9.30
2014,03,29,10,00,9.30
2014,03,29,10,01,9.40
2014,03,29,10,02,9.40
2014,03,29,10,03,9.30
2014,03,29,10,04,9.30
2014,03,29,10,05,9.40
2014,03,29,10,06,9.40
2014,03,29,10,07,9.30
2014,03,29,10,08,9.40
2014,03,29,10,09,9.40
2014,03,29,10,10,9.40
2014,03,29,10,11,9.40
2014,03,29,10,12,9.40
2014,03,29,10,13,9.30
2014,03,29,10,14,9.30
2014,03,29,10,15,9.30
2014,03,29,10,16,9.30
2014,03,29,10,17,9.30
2014,03,29,10,18,9.30
2014,03,29,10,19,9.30
2014,03,29,10,20,9.30
2014,03,29,10,21,9.30
2014,03,29,10,22,9.40
2014,03,29,10,23,9.40
2014,03,29,10,24,9.40
2014,03,29,10,25,9.40
2014,03,29,10,26,9.30
2014,03,29,10,27,9.30
2014,03,29,10,28,9.30
2014,03,29,10,29,9.30
2014,03,29,10,30,9.30
2014,03,29,10,31,9.20
2014,03,29,10,32,9.10
2014,03,29,10,33,9.00
2014,03,29,10,34,8.90
2014,03,29,10,35,8.80
2014,03,29,10,36,8.70
2014,03,29,10,37,8.60
2014,03,29,10,38,8.60
2014,03,29,10,39,8.60
2014,03,29,10,40,8.60
2014,03,29,10,41,8.50
2014,03,29,10,42,8.50
2014,03,29,10,43,8.50
2014,03,29,10,44,8.50
2014,03,29,10,45,8.50
2014,03,29,10,46,8.60
2014,03,29,10,47,8.60
2014,03,29,10,48,8.70
2014,03,29,10,49,8.70
2014,03,29,10,50,8.70
2014,03,29,10,51,8.70
2014,03,29,10,52,8.70
2014,03,29,10,53,8.80
2014,03,29,10,54,8.80
2014,03,29,10,55,8.80
2014,03,29,10,56,8.80
2014,03,29,10,57,8.80
2014,03,29,10,58,8.90
2014,03,29,10,59,8.90
2014,03,29,11,00,8.90
2014,03,29,11,01,8.90
2014,03,29,11,02,8.80
2014,03,29,11,03,8.90
2014,03,29,11,04,8.90
2014,03,29,11,05,8.90
2014,03,29,11,06,9.00
2014,03,29,11,07,9.00
2014,03,29,11,08,8.90
2014,03,29,11,09,8.80
2014,03,29,11,10,8.70
2014,03,29,11,11,8.70
2014,03,29,11,12,8.70
2014,03,29,11,13,8.80
2014,03,29,11,14,8.80
2014,03,29,11,15,8.80
2014,03,29,11,16,8.80
2014,03,29,11,17,8.80
2014,03,29,11,18,8.80
2014,03,29,11,19,8.80
2014,03,29,11,20,8.80
2014,03,29,11,21,8.80
2014,03,29,11,22,8.80
2014,03,29,11,23,8.80
2014,03,29,11,24,8.80
2014,03,29,11,25,8.90
2014,03,29,11,26,8.90
2014,03,29,11,27,8.90
2014,03,29,11,28,8.80
2014,03,29,11,29,8.80
2014,03,29,11,30,8.80
2014,03,29,11,31,8.70
2014,03,29,11,32,8.70
2014,03,29,11,33,8.60
2014,03,29,11,34,8.60
2014,03,29,11,35,8.60
2014,03,29,11,36,8.60
2014,03,29,11,37,8.60
2014,03,29,11,38,8.60
2014,03,29,11,39,8.60
2014,03,29,11,40,8.60
2014,03,29,11,41,8.60
2014,03,29,11,42,8.60
2014,03,29,11,43,8.60
2014,03,29,11,44,8.60
2014,03,29,11,45,8.60
2014,03,29,11,46,8.60
2014,03,29,11,47,8.70
2014,03,29,11,48,8.70
2014,03,29,11,49,8.70
2014,03,29,11,50,8.70
2014,03,29,11,51,8.70
2014,03,29,11,52,8.60
2014,03,29,11,53,8.60
2014,03,29,11,54,8.60
2014,03,29,11,55,8.60
2014,03,29,11,56,8.60
2014,03,29,11,57,8.60
2014,03,29,11,58,8.60
2014,03,29,11,59,8.60
2014,03,29,12,00,8.70
2014,03,29,12,01,8.70
2014,03,29,12,02,8.70
2014,03,29,12,03,8.80
2014,03,29,12,04,8.80
2014,03,29,12,05,8.80
2014,03,29,12,06,8.80
2014,03,29,12,07,8.80
2014,03,29,12,08,8.80
2014,03,29,12,09,8.80
2014,03,29,12,10,8.90
2014,03,29,12,11,8.90
2014,03,29,12,12,8.90
2014,03,29,12,13,9.00
2014,03,29,12,14,9.00
2014,03,29,12,15,8.90
2014,03,29,12,16,8.90
2014,03,29,12,17,8.90
2014,03,29,12,18,8.90
2014,03,29,12,19,8.90
2014,03,29,12,20,8.90
2014,03,29,12,21,8.90
2014,03,29,12,22,9.00
2014,03,29,12,23,9.00
2014,03,29,12,24,9.00
2014,03,29,12,25,9.00
2014,03,29,12,26,9.10
2014,03,29,12,27,9.10
2014,03,29,12,28,9.10
2014,03,29,12,29,9.00
2014,03,29,12,30,9.00
2014,03,29,12,31,9.00
2014,03,29,12,32,9.10
2014,03,29,12,33,9.10
2014,03,29,12,34,9.10
2014,03,29,12,35,9.10
2014,03,29,12,36,9.10
2014,03,29,12,37,9.10
2014,03,29,12,38,9.20
2014,03,29,12,39,9.30
2014,03,29,12,40,9.40
2014,03,29,12,41,9.50
2014,03,29,12,42,9.60
2014,03,29,12,43,9.60
2014,03,29,12,44,9.70
2014,03,29,12,45,9.70
2014,03,29,12,46,9.70
2014,03,29,12,47,9.80
2014,03,29,12,48,9.80
2014,03,29,12,49,9.70
2014,03,29,12,50,9.70
2014,03,29,12,51,9.70
2014,03,29,12,52,9.70
2014,03,29,12,53,9.90
2014,03,29,12,54,10.00
2014,03,29,12,55,10.00
2014,03,29,12,56,10.00
2014,03,29,12,57,10.00
2014,03,29,12,58,9.90
2014,03,29,12,59,9.80
2014,03,29,13,00,9.80
2014,03,29,13,01,9.80
2014,03,29,13,02,9.80
2014,03,29,13,03,9.80
2014,03,29,13,04,9.70
2014,03,29,13,05,9.70
2014,03,29,13,06,9.70
2014,03,29,13,07,9.70
2014,03,29,13,08,9.70
2014,03,29,13,09,9.70
2014,03,29,13,10,9.80
2014,03,29,13,11,9.80
2014,03,29,13,12,9.90
2014,03,29,13,13,9.90
2014,03,29,13,14,10.00
2014,03,29,13,15,10.00
2014,03,29,13,16,10.10
2014,03,29,13,17,10.10
2014,03,29,13,18,10.20
2014,03,29,13,19,10.20
2014,03,29,13,20,10.20
2014,03,29,13,21,10.30
2014,03,29,13,22,10.40
2014,03,29,13,23,10.40
2014,03,29,13,24,10.40
2014,03,29,13,25,10.40
2014,03,29,13,26,10.40
2014,03,29,13,27,10.50
2014,03,29,13,28,10.60
2014,03,29,13,29,10.60
2014,03,29,13,30,10.60
2014,03,29,13,31,10.60
2014,03,29,13,32,10.60
2014,03,29,13,33,10.60
2014,03,29,13,34,10.60
2014,03,29,13,35,10.60
2014,03,29,13,36,10.70
2014,03,29,13,37,10.70
2014,03,29,13,38,10.70
2014,03,29,13,39,10.70
2014,03,29,13,40,10.70
2014,03,29,13,41,10.70
2014,03,29,13,42,10.70
2014,03,29,13,43,10.70
2014,03,29,13,44,10.70
2014,03,29,13,45,10.70
2014,03,29,13,46,10.70
2014,03,29,13,47,10.60
2014,03,29,13,48,10.50
2014,03,29,13,49,10.40
2014,03,29,13,50,10.30
2014,03,29,13,51,10.20
2014,03,29,13,52,10.10
2014,03,29,13,53,10.10
2014,03,29,13,54,10.10
2014,03,29,13,55,10.10
2014,03,29,13,56,10.10
2014,03,29,13,57,10.20
2014,03,29,13,58,10.20
2014,03,29,13,59,10.20
2014,03,29,14,00,10.20
2014,03,29,14,01,10.20
2014,03,29,14,02,10.10
2014,03,29,14,03,10.00
2014,03,29,14,04,10.00
2014,03,29,14,05,9.90
2014,03,29,14,06,9.90
2014,03,29,14,07,9.90
2014,03,29,14,08,9.80
2014,03,29,14,09,9.80
2014,03,29,14,10,9.90
2014,03,29,14,11,9.90
2014,03,29,14,12,9.90
2014,03,29,14,13,9.80
2014,03,29,14,14,9.80
2014,03,29,14,15,9.80
2014,03,29,14,16,9.80
2014,03,29,14,17,9.80
2014,03,29,14,18,9.70
2014,03,29,14,19,9.70
2014,03,29,14,20,9.60
2014,03,29,14,21,9.60
2014,03,29,14,22,9.60
2014,03,29,14,23,9.50
2014,03,29,14,24,9.60
2014,03,29,14,25,9.60
2014,03,29,14,26,9.70
2014,03,29,14,27,9.70
2014,03,29,14,28,9.80
2014,03,29,14,29,9.80
2014,03,29,14,30,9.90
2014,03,29,14,31,10.00
2014,03,29,14,32,10.10
2014,03,29,14,33,10.10
2014,03,29,14,34,10.10
2014,03,29,14,35,10.20
2014,03,29,14,36,10.20
2014,03,29,14,37,10.20
2014,03,29,14,38,10.20
2014,03,29,14,39,10.20
2014,03,29,14,40,10.20
2014,03,29,14,41,10.30
2014,03,29,14,42,10.30
2014,03,29,14,43,10.40
2014,03,29,14,44,10.40
2014,03,29,14,45,10.40
2014,03,29,14,46,10.40
2014,03,29,14,47,10.50
2014,03,29,14,48,10.50
2014,03,29,14,49,10.60
2014,03,29,14,50,10.60
2014,03,29,14,51,10.60
2014,03,29,14,52,10.60
2014,03,29,14,53,10.60
2014,03,29,14,54,10.60
2014,03,29,14,55,10.60
2014,03,29,14,56,10.50
2014,03,29,14,57,10.50
2014,03,29,14,58,10.40
2014,03,29,14,59,10.40
2014,03,29,15,00,10.40
2014,03,29,15,01,10.30
2014,03,29,15,02,10.30
2014,03,29,15,03,10.40
2014,03,29,15,04,10.40
2014,03,29,15,05,10.40
2014,03,29,15,06,10.40
2014,03,29,15,07,10.40
2014,03,29,15,08,10.40
2014,03,29,15,09,10.30
2014,03,29,15,10,10.30
2014,03,29,15,11,10.30
2014,03,29,15,12,10.30
2014,03,29,15,13,10.30
2014,03,29,15,14,10.40
2014,03,29,15,15,10.40
2014,03,29,15,16,10.30
2014,03,29,15,17,10.40
2014,03,29,15,18,10.40
2014,03,29,15,19,10.40
2014,03,29,15,20,10.40
2014,03,29,15,21,10.50
2014,03,29,15,22,10.60
2014,03,29,15,23,10.70
2014,03,29,15,24,10.70
2014,03,29,15,25,10.80
2014,03,29,15,26,10.80
2014,03,29,15,27,10.90
2014,03,29,15,28,10.90
2014,03,29,15,29,10.90
2014,03,29,15,30,10.90
2014,03,29,15,31,10.80
2014,03,29,15,32,10.70
2014,03,29,15,33,10.60
2014,03,29,15,34,10.60
2014,03,29,15,35,10.60
2014,03,29,15,36,10.60
2014,03,29,15,37,10.70
2014,03,29,15,38,10.70
2014,03,29,15,39,10.70
2014,03,29,15,40,10.80
2014,03,29,15,41,10.70
2014,03,29,15,42,10.70
2014,03,29,15,43,10.70
2014,03,29,15,44,10.70
2014,03,29,15,45,10.70
2014,03,29,15,46,10.80
2014,03,29,15,47,10.80
2014,03,29,15,48,10.80
2014,03,29,15,49,10.70
2014,03,29,15,50,10.60
2014,03,29,15,51,10.60
2014,03,29,15,52,10.40
2014,03,29,15,53,10.40
2014,03,29,15,54,10.40
2014,03,29,15,55,10.40
2014,03,29,15,56,10.50
2014,03,29,15,57,10.50
2014,03,29,15,58,10.60
2014,03,29,15,59,10.60
2014,03,29,16,00,10.60
2014,03,29,16,01,10.70
2014,03,29,16,02,10.70
2014,03,29,16,03,10.70
2014,03,29,16,04,10.70
2014,03,29,16,05,10.80
2014,03,29,16,06,10.90
2014,03,29,16,07,11.00
2014,03,29,16,08,11.00
2014,03,29,16,09,11.10
2014,03,29,16,10,11.10
2014,03,29,16,11,10.90
2014,03,29,16,12,10.70
2014,03,29,16,13,10.50
2014,03,29,16,14,10.40
2014,03,29,16,15,10.40
2014,03,29,16,16,10.50
2014,03,29,16,17,10.50
2014,03,29,16,18,10.50
2014,03,29,16,19,10.50
2014,03,29,16,20,10.60
2014,03,29,16,21,10.70
2014,03,29,16,22,10.80
2014,03,29,16,23,10.90
2014,03,29,16,24,10.90
2014,03,29,16,25,10.80
2014,03,29,16,26,10.80
2014,03,29,16,27,10.80
2014,03,29,16,28,10.70
2014,03,29,16,29,10.70
2014,03,29,16,30,10.80
2014,03,29,16,31,10.80
2014,03,29,16,32,10.80
2014,03,29,16,33,10.80
2014,03,29,16,34,10.80
2014,03,29,16,35,10.70
2014,03,29,16,36,10.70
2014,03,29,16,37,10.60
2014,03,29,16,38,10.50
2014,03,29,16,39,10.50
2014,03,29,16,40,10.40
2014,03,29,16,41,10.40
2014,03,29,16,42,10.30
2014,03,29,16,43,10.20
2014,03,29,16,44,10.20
2014,03,29,16,45,10.20
2014,03,29,16,46,10.10
2014,03,29,16,47,10.10
2014,03,29,16,48,10.10
2014,03,29,16,49,10.10
2014,03,29,16,50,10.10
2014,03,29,16,51,10.10
2014,03,29,16,52,10.10
2014,03,29,16,53,10.00
2014,03,29,16,54,10.00
2014,03,29,16,55,10.00
2014,03,29,16,56,10.00
2014,03,29,16,57,10.00
2014,03,29,16,58,10.00
2014,03,29,16,59,10.00
2014,03,29,17,00,10.00
2014,03,29,17,01,10.10
2014,03,29,17,02,10.10
2014,03,29,17,03,10.10
2014,03,29,17,04,10.10
2014,03,29,17,05,10.20
2014,03,29,17,06,10.20
2014,03,29,17,07,10.20
2014,03,29,17,08,10.30
2014,03,29,17,09,10.30
2014,03,29,17,10,10.20
2014,03,29,17,11,10.20
2014,03,29,17,12,10.20
2014,03,29,17,13,10.20
2014,03,29,17,14,10.20
2014,03,29,17,15,10.20
2014,03,29,17,16,10.20
2014,03,29,17,17,10.20
2014,03,29,17,18,10.20
2014,03,29,17,19,10.20
2014,03,29,17,20,10.30
2014,03,29,17,21,10.30
2014,03,29,17,22,10.30
2014,03,29,17,23,10.40
2014,03,29,17,24,10.40
2014,03,29,17,25,10.40
2014,03,29,17,26,10.40
2014,03,29,17,27,10.30
2014,03,29,17,28,10.30
2014,03,29,17,29,10.30
2014,03,29,17,30,10.30
2014,03,29,17,31,10.20
2014,03,29,17,32,10.20
2014,03,29,17,33,10.20
2014,03,29,17,34,10.20
2014,03,29,17,35,10.20
2014,03,29,17,36,10.10
2014,03,29,17,37,10.10
2014,03,29,17,38,10.10
2014,03,29,17,39,10.00
2014,03,29,17,40,10.00
2014,03,29,17,41,10.00
2014,03,29,17,42,9.90
2014,03,29,17,43,9.90
2014,03,29,17,44,9.90
2014,03,29,17,45,9.80
2014,03,29,17,46,9.80
2014,03,29,17,47,9.80
2014,03,29,17,48,9.70
2014,03,29,17,49,9.70
2014,03,29,17,50,9.70
2014,03,29,17,51,9.70
2014,03,29,17,52,9.70
2014,03,29,17,53,9.70
2014,03,29,17,54,9.70
2014,03,29,17,55,9.70
2014,03,29,17,56,9.70
2014,03,29,17,57,9.70
2014,03,29,17,58,9.70
2014,03,29,17,59,9.70
2014,03,29,18,00,9.70
